Everett, WA

7:43 AM PST on December 13, 2019 (GMT -0800)
Snohomish County

Weather History for KPAE - July, 2019

Change the Weather History Date:

Tuesday, July 23, 2019

  Actual Average Record
Temperature  
Mean Temperature 62 °F -  
Max Temperature 68 °F 73 °F 91 °F (2004)
Min Temperature 57 °F 54 °F 46 °F (1960)
Degree Days  
Heating Degree Days 4    
Growing Degree Days 12 (Base 50)    
Moisture  
Dew Point 55 °F    
Average Humidity 81    
Maximum Humidity 93    
Minimum Humidity 66    
Precipitation  
Precipitation 0.00 in - - ()
Sea Level Pressure  
Sea Level Pressure 30.10 in    
Wind  
Wind Speed 6 mph (North)    
Max Wind Speed 12 mph    
Max Gust Speed 16 mph    
Visibility 10 miles    
Events      
Averages and records for this station are not official NWS values.
T = Trace of Precipitation, MM = Missing Value Source: NWS Daily Summary

Daily Weather History Graph

Daily Weather History Graph

Search for Another Location

Airport or City:

Astronomy

Jul. 23, 2019 Rise Set
Actual Time 5:34 AM PDT 8:56 PM PDT
Civil Twilight 4:56 AM PDT 9:33 PM PDT
Nautical Twilight 4:06 AM PDT 10:23 PM PDT
Astronomical Twilight 3:01 AM PDT 11:27 PM PDT
Moon No Moon Rise 12:19 PM PDT (7/23)
Length of Visible Light 16h 37m
Length of Day
15h 21m
Waning Gibbous, 62% of the Moon is Illuminated
Jul 23
Waning Gibbous
Jul 24
Last Quarter
Jul 31
New
Aug 7
First Quarter
Aug 15
Full

Hourly Weather History & Observations

Time (PDT) Temp. Dew Point Humidity Pressure Visibility Wind Dir Wind Speed Gust Speed Precip Events Conditions
12:53 AM 59.0 °F 55.0 °F 87% 30.07 in 10.0 mi NNE 5.8 mph - N/A   Clear
1:53 AM 59.0 °F 55.9 °F 90% 30.07 in 10.0 mi NNE 8.1 mph - N/A   Clear
2:48 AM 59.0 °F 55.4 °F 88% 30.08 in 10.0 mi NNE 3.5 mph - N/A   Partly Cloudy
2:53 AM 59.0 °F 55.9 °F 90% 30.08 in 10.0 mi NNE 5.8 mph - N/A   Partly Cloudy
3:53 AM 57.9 °F 55.9 °F 93% 30.08 in 10.0 mi Variable 4.6 mph - N/A   Partly Cloudy
4:53 AM 57.9 °F 55.0 °F 90% 30.08 in 10.0 mi NE 4.6 mph - N/A   Clear
5:38 AM 57.9 °F 55.0 °F 90% 30.10 in 10.0 mi Variable 4.6 mph - N/A   Scattered Clouds
5:46 AM 57.9 °F 55.0 °F 90% 30.10 in 10.0 mi NE 4.6 mph - N/A   Mostly Cloudy
5:53 AM 57.9 °F 55.9 °F 93% 30.10 in 10.0 mi NE 4.6 mph - N/A   Mostly Cloudy
6:53 AM 59.0 °F 55.9 °F 90% 30.10 in 10.0 mi Variable 5.8 mph - N/A   Overcast
7:53 AM 59.0 °F 55.9 °F 90% 30.11 in 10.0 mi ENE 4.6 mph - N/A   Overcast
8:53 AM 60.1 °F 55.9 °F 86% 30.11 in 10.0 mi Calm Calm - N/A   Overcast
9:48 AM 60.8 °F 55.4 °F 82% 30.11 in 10.0 mi North 3.5 mph - N/A   Overcast
9:53 AM 62.1 °F 55.9 °F 80% 30.10 in 10.0 mi Variable 4.6 mph - N/A   Overcast
10:53 AM 62.1 °F 55.9 °F 80% 30.10 in 10.0 mi WNW 4.6 mph - N/A   Overcast
11:53 AM 63.0 °F 55.9 °F 78% 30.11 in 10.0 mi Variable 4.6 mph - N/A   Overcast
12:20 PM 64.0 °F 55.9 °F 75% 30.11 in 10.0 mi NW 6.9 mph - N/A   Overcast
12:53 PM 64.9 °F 55.9 °F 73% 30.10 in 10.0 mi Variable 5.8 mph - N/A   Overcast
1:53 PM 66.0 °F 55.9 °F 70% 30.10 in 10.0 mi WNW 5.8 mph - N/A   Overcast
2:53 PM 66.0 °F 55.9 °F 70% 30.10 in 10.0 mi West 5.8 mph - N/A   Overcast
3:53 PM 66.9 °F 55.0 °F 66% 30.09 in 10.0 mi WSW 9.2 mph - N/A   Overcast
4:53 PM 64.9 °F 55.9 °F 73% 30.09 in 10.0 mi WSW 6.9 mph - N/A   Overcast
5:53 PM 63.0 °F 53.1 °F 70% 30.10 in 10.0 mi North 8.1 mph - N/A   Overcast
6:00 PM 62.1 °F 53.1 °F 72% 30.10 in 10.0 mi North 8.1 mph - N/A   Overcast
6:25 PM 61.0 °F 53.1 °F 75% 30.10 in 10.0 mi NNW 6.9 mph - N/A   Overcast
6:53 PM 62.1 °F 53.1 °F 72% 30.09 in 10.0 mi North 6.9 mph - N/A   Overcast
7:53 PM 60.1 °F 52.0 °F 75% 30.09 in 10.0 mi North 11.5 mph 16.1 mph N/A   Overcast
8:53 PM 59.0 °F 53.1 °F 81% 30.10 in 10.0 mi North 8.1 mph - N/A   Overcast
9:21 PM 57.9 °F 53.1 °F 84% 30.11 in 10.0 mi North 4.6 mph - N/A   Overcast
9:53 PM 57.9 °F 53.1 °F 84% 30.12 in 10.0 mi North 9.2 mph - N/A   Mostly Cloudy
10:21 PM 57.9 °F 52.0 °F 81% 30.13 in 10.0 mi NNE 8.1 mph - N/A   Overcast
10:49 PM 57.2 °F 51.8 °F 82% 30.15 in 10.0 mi North 8.1 mph - N/A   Overcast
10:53 PM 57.9 °F 51.1 °F 78% 30.14 in 10.0 mi Variable 6.9 mph - N/A   Overcast
11:53 PM 57.9 °F 51.1 °F 78% 30.15 in 10.0 mi North 3.5 mph - N/A   Overcast